Time,TemperatureF,DewpointF,PressureIn,WindDirection,WindDirectionDegrees,WindSpeedMPH,WindSpeedGustMPH,Humidity,HourlyPrecipIn,Conditions,Clouds,dailyrainin,SoftwareType,DateUTC
2013-08-23 00:13:00,65.0,64.0,30.14,North,360,0.0,0.0,95,0.00,,,0.00,,2013-08-23 04:13:00,
2013-08-23 00:24:00,64.0,63.0,30.14,North,360,0.0,0.0,95,0.00,,,0.00,,2013-08-23 04:24:00,
2013-08-23 00:43:00,64.0,63.0,30.14,North,360,0.0,0.0,95,0.00,,,0.00,,2013-08-23 04:43:00,
2013-08-23 00:54:00,64.0,63.0,30.14,North,360,0.0,0.0,96,0.00,,,0.00,,2013-08-23 04:54:00,
2013-08-23 01:13:00,64.0,63.0,30.13,North,360,0.0,0.0,96,0.00,,,0.00,,2013-08-23 05:13:00,
2013-08-23 01:22:00,64.0,63.0,30.13,North,360,0.0,0.0,96,0.00,,,0.00,,2013-08-23 05:22:00,
2013-08-23 01:42:00,64.0,63.0,30.13,North,360,0.0,0.0,96,0.00,,,0.00,,2013-08-23 05:42:00,
2013-08-23 01:52:00,63.0,62.0,30.13,North,360,0.0,0.0,96,0.00,,,0.00,,2013-08-23 05:52:00,
2013-08-23 02:12:00,63.0,62.0,30.13,North,360,0.0,0.0,96,0.00,,,0.00,,2013-08-23 06:12:00,
2013-08-23 02:22:00,63.0,62.0,30.12,North,360,0.0,0.0,96,0.00,,,0.00,,2013-08-23 06:22:00,
2013-08-23 02:42:00,63.0,62.0,30.11,North,360,0.0,0.0,96,0.00,,,0.00,,2013-08-23 06:42:00,
2013-08-23 02:52:00,63.0,62.0,30.11,North,360,0.0,0.0,96,0.00,,,0.00,,2013-08-23 06:52:00,
2013-08-23 03:12:00,63.0,62.0,30.11,North,360,0.0,0.0,96,0.00,,,0.00,,2013-08-23 07:12:00,
2013-08-23 03:22:00,63.0,62.0,30.11,North,360,0.0,0.0,97,0.00,,,0.00,,2013-08-23 07:22:00,
2013-08-23 03:52:00,63.0,62.0,30.10,North,360,0.0,0.0,97,0.00,,,0.00,,2013-08-23 07:52:00,
2013-08-23 04:13:00,63.0,62.0,30.09,North,360,0.0,0.0,97,0.00,,,0.00,,2013-08-23 08:13:00,
2013-08-23 04:22:00,63.0,62.0,30.09,North,360,0.0,0.0,97,0.00,,,0.00,,2013-08-23 08:22:00,
2013-08-23 04:42:00,63.0,62.0,30.09,North,360,0.0,0.0,97,0.00,,,0.00,,2013-08-23 08:42:00,
2013-08-23 04:52:00,63.0,62.0,30.09,North,360,0.0,0.0,97,0.00,,,0.00,,2013-08-23 08:52:00,
2013-08-23 05:12:00,63.0,62.0,30.10,North,360,0.0,0.0,97,0.00,,,0.00,,2013-08-23 09:12:00,
2013-08-23 05:21:00,63.0,62.0,30.09,North,360,0.0,0.0,97,0.00,,,0.00,,2013-08-23 09:21:00,
2013-08-23 05:43:00,62.0,61.0,30.09,North,360,0.0,0.0,97,0.00,,,0.00,,2013-08-23 09:43:00,
2013-08-23 05:53:00,62.0,61.0,30.09,North,360,0.0,0.0,97,0.00,,,0.00,,2013-08-23 09:53:00,
2013-08-23 06:13:00,63.0,62.0,30.10,North,360,0.0,0.0,97,0.00,,,0.00,,2013-08-23 10:13:00,
2013-08-23 06:23:00,63.0,62.0,30.10,North,360,0.0,0.0,97,0.00,,,0.00,,2013-08-23 10:23:00,
2013-08-23 06:42:00,62.0,61.0,30.10,North,360,0.0,0.0,97,0.00,,,0.00,,2013-08-23 10:42:00,
2013-08-23 06:52:00,62.0,61.0,30.10,North,360,0.0,0.0,97,0.00,,,0.00,,2013-08-23 10:52:00,
2013-08-23 07:11:00,62.0,61.0,30.11,North,360,0.0,0.0,97,0.00,,,0.00,,2013-08-23 11:11:00,
2013-08-23 07:22:00,62.0,62.0,30.11,North,360,0.0,0.0,99,0.00,,,0.00,,2013-08-23 11:22:00,
2013-08-23 07:42:00,62.0,62.0,30.11,North,360,0.0,0.0,99,0.00,,,0.00,,2013-08-23 11:42:00,
2013-08-23 07:53:00,62.0,61.0,30.11,North,360,0.0,0.0,97,0.00,,,0.00,,2013-08-23 11:53:00,
2013-08-23 08:11:00,62.0,61.0,30.12,North,360,0.0,0.0,97,0.00,,,0.00,,2013-08-23 12:11:00,
2013-08-23 08:22:00,62.0,61.0,30.12,North,360,0.0,0.0,97,0.00,,,0.00,,2013-08-23 12:22:00,
2013-08-23 08:42:00,62.0,61.0,30.13,North,360,0.0,0.0,97,0.00,,,0.00,,2013-08-23 12:42:00,
2013-08-23 08:52:00,63.0,62.0,30.13,North,360,0.0,0.0,97,0.00,,,0.00,,2013-08-23 12:52:00,
2013-08-23 09:12:00,63.0,62.0,30.13,North,360,0.0,0.0,98,0.00,,,0.00,,2013-08-23 13:12:00,
2013-08-23 09:22:00,63.0,62.0,30.14,North,360,0.0,0.0,97,0.00,,,0.00,,2013-08-23 13:22:00,
2013-08-23 09:42:00,64.0,63.0,30.13,North,360,0.0,0.0,98,0.00,,,0.00,,2013-08-23 13:42:00,
2013-08-23 09:52:00,64.0,63.0,30.13,NNE,15,0.0,0.0,98,0.00,,,0.00,,2013-08-23 13:52:00,
2013-08-23 10:12:00,64.0,63.0,30.13,NNE,15,0.0,0.0,98,0.00,,,0.00,,2013-08-23 14:12:00,
2013-08-23 10:22:00,65.0,64.0,30.13,NNE,15,0.0,0.0,97,0.00,,,0.00,,2013-08-23 14:22:00,
2013-08-23 10:42:00,66.0,65.0,30.13,NNE,15,0.0,0.0,97,0.00,,,0.00,,2013-08-23 14:42:00,
2013-08-23 10:52:00,67.0,66.0,30.13,ENE,63,0.0,2.0,96,0.00,,,0.00,,2013-08-23 14:52:00,
2013-08-23 11:11:00,68.0,66.0,30.14,NE,49,0.0,2.0,94,0.00,,,0.00,,2013-08-23 15:11:00,
2013-08-23 11:22:00,69.0,67.0,30.14,NE,50,0.0,2.0,93,0.00,,,0.00,,2013-08-23 15:22:00,
2013-08-23 11:44:00,70.0,67.0,30.14,East,89,0.0,3.0,91,0.00,,,0.00,,2013-08-23 15:44:00,
2013-08-23 11:54:00,72.0,69.0,30.13,ENE,73,0.0,2.0,89,0.00,,,0.00,,2013-08-23 15:54:00,
2013-08-23 12:13:00,74.0,70.0,30.12,ENE,68,0.0,1.0,87,0.00,,,0.00,,2013-08-23 16:13:00,
2013-08-23 12:24:00,76.0,71.0,30.12,ENE,72,0.0,0.0,85,0.00,,,0.00,,2013-08-23 16:24:00,
2013-08-23 12:42:00,78.0,71.0,30.12,ENE,72,0.0,0.0,78,0.00,,,0.00,,2013-08-23 16:42:00,
2013-08-23 12:53:00,79.0,69.0,30.11,ENE,70,0.0,0.0,72,0.00,,,0.00,,2013-08-23 16:53:00,
2013-08-23 13:13:00,81.0,71.0,30.11,SE,141,0.0,3.0,72,0.00,,,0.00,,2013-08-23 17:13:00,
2013-08-23 13:24:00,81.0,70.0,30.11,ENE,75,1.0,4.0,69,0.00,,,0.00,,2013-08-23 17:24:00,
2013-08-23 13:43:00,81.0,70.0,30.10,SSE,155,0.0,3.0,69,0.00,,,0.00,,2013-08-23 17:43:00,
2013-08-23 13:53:00,81.0,71.0,30.10,SE,143,0.0,2.0,71,0.00,,,0.00,,2013-08-23 17:53:00,
2013-08-23 14:12:00,80.0,64.0,30.09,NNE,14,1.0,4.0,59,0.00,,,0.00,,2013-08-23 18:12:00,
2013-08-23 14:22:00,80.0,68.0,30.09,NE,40,0.0,2.0,66,0.00,,,0.00,,2013-08-23 18:22:00,
2013-08-23 14:42:00,79.0,69.0,30.08,West,275,0.0,3.0,71,0.00,,,0.00,,2013-08-23 18:42:00,
2013-08-23 14:52:00,77.0,69.0,30.08,WNW,302,0.0,4.0,77,0.00,,,0.00,,2013-08-23 18:52:00,
2013-08-23 15:12:00,78.0,67.0,30.07,SE,143,0.0,3.0,70,0.00,,,0.00,,2013-08-23 19:12:00,
2013-08-23 15:22:00,77.0,70.0,30.06,SSW,211,0.0,1.0,78,0.00,,,0.00,,2013-08-23 19:22:00,
2013-08-23 15:42:00,75.0,69.0,30.05,North,354,0.0,1.0,81,0.00,,,0.00,,2013-08-23 19:42:00,
2013-08-23 15:52:00,74.0,68.0,30.05,NNW,347,0.0,1.0,81,0.00,,,0.00,,2013-08-23 19:52:00,
2013-08-23 16:12:00,76.0,68.0,30.04,NNW,347,0.0,1.0,77,0.00,,,0.00,,2013-08-23 20:12:00,
2013-08-23 16:22:00,78.0,69.0,30.03,NNE,25,0.0,5.0,74,0.00,,,0.00,,2013-08-23 20:22:00,
2013-08-23 16:42:00,80.0,70.0,30.03,South,174,1.0,4.0,72,0.00,,,0.00,,2013-08-23 20:42:00,
2013-08-23 16:52:00,81.0,69.0,30.03,South,185,0.0,2.0,66,0.00,,,0.00,,2013-08-23 20:52:00,
2013-08-23 17:11:00,80.0,69.0,30.03,South,186,0.0,0.0,70,0.00,,,0.00,,2013-08-23 21:11:00,
2013-08-23 17:22:00,79.0,70.0,30.03,South,186,0.0,0.0,75,0.00,,,0.00,,2013-08-23 21:22:00,
2013-08-23 17:44:00,78.0,71.0,30.03,South,186,0.0,0.0,80,0.00,,,0.00,,2013-08-23 21:44:00,
2013-08-23 17:54:00,77.0,70.0,30.03,South,188,0.0,0.0,80,0.00,,,0.00,,2013-08-23 21:54:00,
2013-08-23 18:13:00,77.0,69.0,30.03,SSW,197,0.0,0.0,77,0.00,,,0.00,,2013-08-23 22:13:00,
2013-08-23 18:24:00,76.0,70.0,30.04,SSW,197,0.0,0.0,81,0.00,,,0.00,,2013-08-23 22:24:00,
2013-08-23 18:43:00,75.0,68.0,30.06,NW,319,5.0,9.0,78,0.00,,,0.00,,2013-08-23 22:43:00,
2013-08-23 18:53:00,70.0,65.0,30.06,NW,308,2.0,6.0,85,0.01,,,0.01,,2013-08-23 22:53:00,
2013-08-23 19:12:00,68.0,65.0,30.07,WSW,242,0.0,1.0,89,0.03,,,0.03,,2013-08-23 23:12:00,
2013-08-23 19:22:00,67.0,65.0,30.06,WSW,242,0.0,2.0,92,0.03,,,0.03,,2013-08-23 23:22:00,
2013-08-23 19:43:00,66.0,64.0,30.06,WSW,242,0.0,0.0,92,0.03,,,0.03,,2013-08-23 23:43:00,
2013-08-23 19:54:00,66.0,64.0,30.07,WSW,242,0.0,0.0,93,0.01,,,0.03,,2013-08-23 23:54:00,
2013-08-23 20:11:00,66.0,64.0,30.08,WSW,242,0.0,0.0,93,0.00,,,0.03,,2013-08-24 00:11:00,
2013-08-23 20:22:00,65.0,63.0,30.08,WSW,242,0.0,1.0,94,0.00,,,0.03,,2013-08-24 00:22:00,
2013-08-23 20:43:00,65.0,63.0,30.09,WSW,242,0.0,0.0,94,0.00,,,0.03,,2013-08-24 00:43:00,
2013-08-23 20:53:00,65.0,63.0,30.10,WSW,242,0.0,0.0,94,0.00,,,0.03,,2013-08-24 00:53:00,
2013-08-23 21:11:00,65.0,63.0,30.09,WSW,242,0.0,0.0,94,0.00,,,0.03,,2013-08-24 01:11:00,
2013-08-23 21:22:00,64.0,62.0,30.09,WSW,242,0.0,0.0,94,0.00,,,0.03,,2013-08-24 01:22:00,
2013-08-23 21:42:00,64.0,62.0,30.10,WSW,242,0.0,0.0,93,0.00,,,0.03,,2013-08-24 01:42:00,
2013-08-23 21:53:00,64.0,62.0,30.11,WSW,242,0.0,0.0,94,0.00,,,0.03,,2013-08-24 01:53:00,
2013-08-23 22:12:00,64.0,63.0,30.11,WSW,242,0.0,0.0,95,0.00,,,0.03,,2013-08-24 02:12:00,
2013-08-23 22:22:00,64.0,63.0,30.11,WSW,242,0.0,0.0,95,0.00,,,0.03,,2013-08-24 02:22:00,
2013-08-23 22:42:00,63.0,62.0,30.12,WSW,242,0.0,0.0,95,0.00,,,0.03,,2013-08-24 02:42:00,
2013-08-23 22:52:00,64.0,63.0,30.12,WSW,242,0.0,0.0,95,0.00,,,0.03,,2013-08-24 02:52:00,
2013-08-23 23:12:00,63.0,62.0,30.12,WSW,242,0.0,0.0,95,0.00,,,0.03,,2013-08-24 03:12:00,
2013-08-23 23:22:00,63.0,62.0,30.12,WSW,242,0.0,0.0,95,0.00,,,0.03,,2013-08-24 03:22:00,
2013-08-23 23:44:00,63.0,62.0,30.14,WSW,242,0.0,0.0,95,0.00,,,0.03,,2013-08-24 03:44:00,
2013-08-23 23:54:00,63.0,62.0,30.14,WSW,242,0.0,0.0,95,0.00,,,0.03,,2013-08-24 03:54:00,